Location: Unspecified
(47.5840°N, 122.3000°W)
Time: 15:12:02
(UTC+00:00)

Cosmos 2151 - Pass Details

Date: 09 December 2025
Orbit: 559 x 575 km, 82.5° (Epoch: 19 January)

Event Time Altitude Azimuth Distance (km) Brightness Sun altitude
Rises 14:59:50 0° 197° (SSW) 2,736 6.5 -7.5°
Reaches altitude 10° 15:02:01 10° 201° (SSW) 1,847 5.6 -7.2°
Maximum altitude 15:06:02 60° 282° (WNW) 650 2.9 -6.6°
Drops below altitude 10° 15:10:07 10° 3° (N) 1,871 5.3 -6.0°
Sets 15:12:20 0° 7° (N) 2,776 6.2 -5.7°
